{"data":{"norad_id":64137,"epoch":"2026-05-25T04:00:03.998880Z","epoch_age_seconds":50735,"freshness":"FRESH","line1":"1 64137U 25111Q   26145.16671295  .00367756  00000+0  25906-2 0  9993","line2":"2 64137  42.9881 339.4357 0026691 285.4581  62.1512 15.71768491  5838","mean_motion":15.71768491,"eccentricity":0.0026691,"inclination_deg":42.9881,"raan_deg":339.4357,"arg_perigee_deg":285.4581,"mean_anomaly_deg":62.1512,"bstar":0.0025906,"rev_number":583,"period_min":91.616545836457,"perigee_km":335.87424034417,"apogee_km":371.81089366877,"semimajor_km":6731.9795670065,"source":"CELESTRAK","updated_at":"2026-05-25T13:38:20.274670Z"}}